FW3021 Weather Reports


time (UTC)temp
C
wind
direction
speed
KPH
gust
KPH
rain 1hr
cm
rain 24hr
cm
rain mn
cm
humidity
%
barometer
mb
20260906191537 19 0 6.4 14.5 0.00 0.00 0.00 74 1019.2
20260906190557 20 0 4.8 12.9 0.00 0.00 0.00 73 1019.4
20260906185517 20 0 6.4 16.1 0.00 0.00 0.00 74 1019.4
20260906184517 20 0 6.4 14.5 0.00 0.00 0.00 73 1019.4
20260906183517 20 0 4.8 14.5 0.00 0.00 0.00 73 1019.8
20260906182517 20 0 4.8 14.5 0.00 0.00 0.00 73 1019.9
20260906181537 20 0 4.8 12.9 0.00 0.00 0.00 73 1019.8
20260906180537 20 0 4.8 14.5 0.00 0.00 0.00 73 1019.8
20260906175517 19 0 6.4 12.9 0.00 0.00 0.00 73 1020.0
20260906174517 19 0 4.8 9.7 0.00 0.00 0.00 74 1020.1
20260906173517 19 0 6.4 14.5 0.00 0.00 0.00 74 1020.0
20260906172517 19 0 4.8 9.7 0.00 0.00 0.00 74 1020.1
20260906171517 19 0 6.4 12.9 0.00 0.00 0.00 73 1020.2
20260906170517 19 0 6.4 12.9 0.00 0.00 0.00 73 1020.2
20260906165517 20 0 4.8 14.5 0.00 0.00 0.00 72 1020.2
20260906164537 19 0 8.0 14.5 0.00 0.00 0.00 72 1020.1
20260906163517 20 0 6.4 16.1 0.00 0.00 0.00 71 1020.2
20260906162557 20 0 6.4 17.7 0.00 0.00 0.00 71 1020.0
20260906161517 20 0 4.8 17.7 0.00 0.00 0.00 72 1020.0
20260906160517 20 0 4.8 14.5 0.00 0.00 0.00 73 1020.0
20260906155517 20 0 4.8 12.9 0.00 0.00 0.00 73 1020.0
20260906154517 19 0 4.8 12.9 0.00 0.00 0.00 73 1020.1
20260906153517 19 0 6.4 14.5 0.00 0.00 0.00 73 1020.0
20260906152517 19 0 6.4 14.5 0.00 0.00 0.00 71 1020.1
20260906151517 19 0 6.4 12.9 0.00 0.00 0.00 72 1020.0
20260906150517 20 0 8.0 16.1 0.00 0.00 0.00 71 1019.8
20260906145517 20 0 6.4 14.5 0.00 0.00 0.00 71 1019.8
20260906144517 20 0 4.8 14.5 0.00 0.00 0.00 69 1019.8
20260906143537 20 0 3.2 9.7 0.00 0.00 0.00 71 1020.0
20260906142517 19 0 6.4 12.9 0.00 0.00 0.00 71 1020.1
20260906141517 19 0 3.2 8.0 0.00 0.00 0.00 72 1020.3
20260906140517 19 0 4.8 16.1 0.00 0.00 0.00 70 1020.2
20260906135516 20 0 6.4 16.1 0.00 0.00 0.00 71 1020.3
20260906134516 20 0 4.8 12.9 0.00 0.00 0.00 71 1020.4
20260906133517 20 0 3.2 8.0 0.00 0.00 0.00 71 1020.3
20260906132517 20 0 1.6 3.2 0.00 0.00 0.00 72 1020.4
20260906131516 18 0 3.2 8.0 0.00 0.00 0.00 73 1020.5
20260906130517 18 0 1.6 8.0 0.00 0.00 0.00 74 1020.4
20260906125516 17 0 1.6 6.4 0.00 0.00 0.00 76 1020.2
20260906124517 17 0 3.2 6.4 0.00 0.00 0.00 77 1020.2
20260906123516 16 0 3.2 6.4 0.00 0.00 0.00 77 1020.1
20260906122516 16 0 3.2 6.4 0.00 0.00 0.00 78 1019.9
20260906121517 15 0 3.2 8.0 0.00 0.00 0.00 79 1019.8
20260906120516 15 0 3.2 6.4 0.00 0.00 0.00 80 1020.0
20260906115516 14 0 4.8 9.7 0.00 0.00 0.00 82 1019.9
20260906114516 13 0 4.8 8.0 0.00 0.00 0.00 82 1019.9
20260906113516 13 0 4.8 6.4 0.00 0.00 0.00 81 1019.7
20260906112516 13 23 4.8 6.4 0.00 0.00 0.00 80 1019.3
20260906111516 13 23 3.2 6.4 0.00 0.00 0.00 79 1019.2
20260906110516 13 0 4.8 6.4 0.00 0.00 0.00 79 1019.0
20260906105516 13 0 4.8 6.4 0.00 0.00 0.00 80 1018.9
20260906104516 13 0 4.8 6.4 0.00 0.00 0.00 79 1018.8
20260906103516 14 23 4.8 6.4 0.00 0.00 0.00 78 1019.0
20260906102516 14 0 3.2 6.4 0.00 0.00 0.00 78 1018.9
20260906101516 14 0 3.2 6.4 0.00 0.00 0.00 77 1018.8
20260906100516 15 0 4.8 8.0 0.00 0.00 0.00 77 1018.8
20260906095516 15 0 4.8 6.4 0.00 0.00 0.00 77 1018.6
20260906094536 15 0 4.8 9.7 0.00 0.00 0.00 77 1018.4
20260906093516 15 0 4.8 8.0 0.00 0.00 0.00 77 1018.2
20260906092516 15 0 4.8 6.4 0.00 0.00 0.00 77 1018.3
20260906091557 15 0 4.8 8.0 0.00 0.00 0.00 78 1018.5
20260906090516 15 0 4.8 8.0 0.00 0.00 0.00 78 1018.5
20260906085536 14 0 4.8 6.4 0.00 0.00 0.00 79 1018.4
20260906084536 14 0 4.8 8.0 0.00 0.00 0.00 79 1018.5
20260906083516 14 0 4.8 6.4 0.00 0.00 0.00 79 1018.8
20260906082516 14 0 4.8 6.4 0.00 0.00 0.00 78 1018.8
20260906081536 14 0 4.8 6.4 0.00 0.00 0.00 78 1018.8
20260906080616 14 0 4.8 6.4 0.00 0.00 0.00 78 1018.8
20260906075516 14 23 4.8 6.4 0.00 0.00 0.00 78 1018.8
20260906074516 15 0 4.8 6.4 0.00 0.00 0.00 78 1018.8
20260906073516 15 338 4.8 6.4 0.00 0.00 0.00 77 1018.7
20260906072516 15 338 3.2 6.4 0.00 0.00 0.00 76 1018.9
20260906071516 16 0 4.8 9.7 0.00 0.00 0.00 75 1019.0
20260906070516 15 23 4.8 11.3 0.00 0.00 0.00 76 1018.9
20260906065516 15 0 4.8 9.7 0.00 0.00 0.00 76 1019.1
20260906064516 15 0 4.8 8.0 0.00 0.00 0.00 77 1019.1
20260906063516 15 23 4.8 8.0 0.00 0.00 0.00 78 1019.2
20260906062556 15 0 4.8 8.0 0.00 0.00 0.00 79 1019.2
20260906061516 14 23 4.8 8.0 0.00 0.00 0.00 79 1019.2
20260906060536 14 23 4.8 4.8 0.00 0.00 0.00 79 1019.3
20260906055516 15 23 4.8 6.4 0.00 0.00 0.00 78 1019.2
20260906054536 15 23 3.2 4.8 0.00 0.00 0.00 78 1019.3
20260906053516 15 23 4.8 6.4 0.00 0.00 0.00 78 1019.2
20260906052516 15 23 3.2 4.8 0.00 0.00 0.00 78 1019.2
20260906051516 15 23 3.2 4.8 0.00 0.00 0.00 78 1018.9
20260906050516 15 23 4.8 8.0 0.00 0.00 0.00 79 1019.1
20260906045516 15 23 3.2 4.8 0.00 0.00 0.00 78 1019.2
20260906044536 15 23 3.2 4.8 0.00 0.00 0.00 77 1019.1
20260906043516 16 23 3.2 6.4 0.00 0.00 0.00 77 1019.0
20260906042516 16 23 4.8 6.4 0.00 0.00 0.00 76 1018.7
20260906041536 16 23 3.2 6.4 0.00 0.00 0.00 77 1018.5
20260906040516 15 23 3.2 6.4 0.00 0.00 0.00 78 1018.5
20260906035516 15 23 3.2 6.4 0.00 0.00 0.00 79 1018.6
20260906034516 15 23 3.2 6.4 0.00 0.00 0.00 79 1018.6
20260906033516 15 23 4.8 8.0 0.00 0.00 0.00 80 1018.5
20260906032516 15 23 3.2 4.8 0.00 0.00 0.00 80 1018.6
20260906031516 15 45 3.2 4.8 0.00 0.00 0.00 80 1018.5
20260906030516 15 45 3.2 4.8 0.00 0.00 0.00 80 1018.5
20260906025516 15 23 3.2 6.4 0.00 0.00 0.00 80 1018.4
20260906024516 15 23 3.2 4.8 0.00 0.00 0.00 79 1018.5
20260906023515 15 23 3.2 4.8 0.00 0.00 0.00 79 1018.4
20260906022516 15 45 3.2 4.8 0.00 0.00 0.00 79 1018.5
20260906021516 15 45 3.2 6.4 0.00 0.00 0.00 79 1018.5
20260906020516 15 45 3.2 6.4 0.00 0.00 0.00 79 1018.3
20260906015515 15 23 3.2 4.8 0.00 0.00 0.00 79 1018.1
20260906014515 15 23 3.2 4.8 0.00 0.00 0.00 79 1018.1
20260906013515 15 45 3.2 4.8 0.00 0.00 0.00 79 1017.9
20260906012555 16 0 3.2 4.8 0.00 0.00 0.00 79 1017.9
20260906011515 16 0 3.2 4.8 0.00 0.00 0.00 79 1017.8
20260906010516 16 0 3.2 4.8 0.00 0.00 0.00 79 1017.7
20260906005515 16 0 3.2 4.8 0.00 0.00 0.00 79 1017.6
20260906004516 16 0 3.2 4.8 0.00 0.00 0.00 79 1017.7
20260906003516 16 0 1.6 3.2 0.00 0.00 0.00 78 1017.6
20260906002515 17 0.0 0.0 0.00 0.00 0.00 78 1017.6
20260906001515 17 0.0 0.0 0.00 0.00 0.00 77 1017.6
20260906000515 18 0.0 3.2 0.00 0.00 0.00 76 1017.8
20260905235515 18 0.0 1.6 0.00 0.00 0.00 74 1017.9
20260905234517 18 0.0 0.0 0.00 0.00 0.00 73 1017.8
20260905233517 18 0 1.6 3.2 0.00 0.00 0.00 71 1017.9
20260905232517 18 0.0 4.8 0.00 0.00 0.00 72 1017.7
20260905231517 18 0.0 3.2 0.00 0.00 0.00 72 1017.9
20260905230517 18 0 1.6 4.8 0.00 0.00 0.00 71 1018.1
20260905225515 18 0 3.2 6.4 0.00 0.00 0.00 72 1018.0
20260905224518 18 0 1.6 4.8 0.00 0.00 0.00 72 1018.1
20260905223537 18 0 3.2 8.0 0.00 0.00 0.00 72 1018.0
20260905222517 18 0 3.2 8.0 0.00 0.00 0.00 71 1018.1
20260905221517 18 0 3.2 12.9 0.00 0.00 0.00 71 1018.0
20260905220517 19 0 3.2 9.7 0.00 0.00 0.00 71 1018.0
20260905215517 19 0 3.2 12.9 0.00 0.00 0.00 71 1018.2
20260905214517 19 0 4.8 12.9 0.00 0.00 0.00 70 1018.3
20260905213517 19 0 4.8 9.7 0.00 0.00 0.00 71 1018.5
20260905212537 19 0 3.2 9.7 0.00 0.00 0.00 71 1018.5
20260905211537 19 0 6.4 9.7 0.00 0.00 0.00 70 1018.6
20260905210517 20 0 4.8 9.7 0.00 0.00 0.00 70 1018.6
20260905205537 20 0 4.8 9.7 0.00 0.00 0.00 70 1018.6
20260905204517 20 0 6.4 14.5 0.00 0.00 0.00 69 1018.6
20260905203517 20 0 8.0 14.5 0.00 0.00 0.00 69 1018.5
20260905202517 20 0 6.4 12.9 0.00 0.00 0.00 69 1018.5
20260905201517 20 0 8.0 16.1 0.00 0.00 0.00 68 1018.6
20260905200517 20 0 4.8 9.7 0.00 0.00 0.00 68 1018.8
20260905195517 20 0 3.2 9.7 0.00 0.00 0.00 68 1018.7
20260905194517 20 0 6.4 12.9 0.00 0.00 0.00 69 1018.6
20260905193517 20 0 4.8 12.9 0.00 0.00 0.00 68 1018.9
20260905192517 20 0 6.4 12.9 0.00 0.00 0.00 69 1019.3